TimeMST,TemperatureF,Dew PointF,Humidity,Sea Level PressureIn,VisibilityMPH,Wind Direction,Wind SpeedMPH,Gust SpeedMPH,PrecipitationIn,Events,Conditions,WindDirDegrees,DateUTC
12:15 AM,17.6,10.4,73,30.05,10.0,SW,4.6,-,N/A,,Clear,220,2013-11-27 07:15:00
12:35 AM,21.2,12.2,68,30.03,10.0,South,8.1,-,N/A,,Clear,190,2013-11-27 07:35:00
12:55 AM,23.0,14.0,68,30.02,10.0,South,10.4,-,N/A,,Clear,190,2013-11-27 07:55:00
1:15 AM,23.0,14.0,68,30.01,10.0,SSW,10.4,-,N/A,,Clear,210,2013-11-27 08:15:00
1:35 AM,24.8,15.8,69,29.99,10.0,South,10.4,-,N/A,,Clear,190,2013-11-27 08:35:00
1:55 AM,23.0,15.8,74,29.98,10.0,SSW,10.4,-,N/A,,Clear,200,2013-11-27 08:55:00
2:15 AM,21.2,14.0,74,29.97,10.0,SSW,9.2,-,N/A,,Clear,200,2013-11-27 09:15:00
2:35 AM,21.2,15.8,80,29.96,10.0,SSW,11.5,-,N/A,,Clear,210,2013-11-27 09:35:00
2:55 AM,24.8,15.8,69,29.95,10.0,SSW,10.4,-,N/A,,Clear,210,2013-11-27 09:55:00
3:15 AM,24.8,17.6,74,29.95,10.0,SSW,12.7,-,N/A,,Clear,210,2013-11-27 10:15:00
3:35 AM,24.8,17.6,74,29.94,10.0,South,15.0,-,N/A,,Clear,190,2013-11-27 10:35:00
3:55 AM,24.8,17.6,74,29.94,10.0,SSW,11.5,-,N/A,,Clear,200,2013-11-27 10:55:00
4:15 AM,23.0,17.6,80,29.94,10.0,SSW,11.5,-,N/A,,Clear,200,2013-11-27 11:15:00
4:35 AM,24.8,17.6,74,29.94,10.0,South,10.4,-,N/A,,Clear,190,2013-11-27 11:35:00
4:55 AM,24.8,17.6,74,29.93,10.0,South,9.2,-,N/A,,Clear,190,2013-11-27 11:55:00
5:15 AM,23.0,17.6,80,29.93,10.0,South,9.2,-,N/A,,Clear,190,2013-11-27 12:15:00
5:35 AM,23.0,17.6,80,29.93,10.0,South,6.9,-,N/A,,Clear,190,2013-11-27 12:35:00
6:35 AM,21.2,15.8,80,29.94,10.0,Calm,Calm,-,N/A,,Clear,0,2013-11-27 13:35:00
6:55 AM,24.8,19.4,80,29.94,10.0,NW,6.9,-,N/A,,Clear,310,2013-11-27 13:55:00
7:15 AM,30.2,24.8,80,29.96,10.0,WNW,10.4,-,N/A,,Partly Cloudy,300,2013-11-27 14:15:00
7:35 AM,33.8,24.8,70,29.96,10.0,NW,12.7,-,N/A,,Partly Cloudy,310,2013-11-27 14:35:00
7:55 AM,32.0,23.0,69,29.97,10.0,WNW,15.0,-,N/A,,Clear,300,2013-11-27 14:55:00
8:15 AM,30.2,23.0,75,29.98,10.0,NW,13.8,-,N/A,,Clear,310,2013-11-27 15:15:00
8:35 AM,30.2,23.0,75,30.00,10.0,NW,12.7,-,N/A,,Clear,320,2013-11-27 15:35:00
8:55 AM,30.2,21.2,69,30.01,10.0,NW,15.0,23.0,N/A,,Clear,310,2013-11-27 15:55:00
9:15 AM,28.4,21.2,74,30.01,10.0,NW,15.0,-,N/A,,Clear,320,2013-11-27 16:15:00
9:35 AM,28.4,21.2,74,30.02,10.0,NW,18.4,24.2,N/A,,Clear,320,2013-11-27 16:35:00
9:55 AM,30.2,21.2,69,30.02,10.0,NW,18.4,23.0,N/A,,Clear,310,2013-11-27 16:55:00
10:15 AM,28.4,21.2,74,30.03,10.0,NW,21.9,28.8,N/A,,Clear,320,2013-11-27 17:15:00
10:35 AM,28.4,21.2,74,30.04,10.0,NW,19.6,25.3,N/A,,Clear,320,2013-11-27 17:35:00
10:55 AM,28.4,21.2,74,30.04,10.0,WNW,13.8,21.9,N/A,,Clear,300,2013-11-27 17:55:00
11:15 AM,30.2,21.2,69,30.04,10.0,WNW,16.1,-,N/A,,Clear,300,2013-11-27 18:15:00
11:35 AM,32.0,23.0,69,30.04,10.0,NW,20.7,-,N/A,,Clear,310,2013-11-27 18:35:00
11:55 AM,33.8,24.8,70,30.05,10.0,NW,19.6,24.2,N/A,,Clear,320,2013-11-27 18:55:00
12:15 PM,33.8,24.8,70,30.06,10.0,NNW,18.4,25.3,N/A,,Clear,330,2013-11-27 19:15:00
12:35 PM,33.8,23.0,65,30.05,10.0,NW,24.2,27.6,N/A,,Clear,320,2013-11-27 19:35:00
12:55 PM,33.8,24.8,70,30.06,10.0,NNW,21.9,29.9,N/A,,Clear,330,2013-11-27 19:55:00